TimeMST,TemperatureF,Dew PointF,Humidity,Sea Level PressureIn,VisibilityMPH,Wind Direction,Wind SpeedMPH,Gust SpeedMPH,PrecipitationIn,Events,Conditions,WindDirDegrees,DateUTC
12:53 AM,39.9,32.0,73,30.27,10.0,East,4.6,-,N/A,,Overcast,100,2013-11-29 07:53:00
1:53 AM,39.0,30.9,73,30.28,10.0,ESE,3.5,-,N/A,,Overcast,110,2013-11-29 08:53:00
2:53 AM,39.0,30.9,73,30.28,10.0,SE,4.6,-,N/A,,Overcast,130,2013-11-29 09:53:00
3:53 AM,39.0,30.9,73,30.28,10.0,SSE,4.6,-,N/A,,Overcast,150,2013-11-29 10:53:00
4:53 AM,39.0,30.9,73,30.29,10.0,South,4.6,-,N/A,,Overcast,180,2013-11-29 11:53:00
5:53 AM,39.0,30.9,73,30.30,10.0,South,5.8,-,N/A,,Overcast,180,2013-11-29 12:53:00
6:53 AM,39.0,30.9,73,30.32,10.0,South,6.9,-,N/A,,Overcast,170,2013-11-29 13:53:00
7:53 AM,39.0,30.9,73,30.34,10.0,South,4.6,-,N/A,,Overcast,180,2013-11-29 14:53:00
8:53 AM,39.0,30.9,73,30.36,10.0,SSE,3.5,-,N/A,,Overcast,160,2013-11-29 15:53:00
9:53 AM,41.0,32.0,70,30.37,10.0,NE,3.5,-,N/A,,Overcast,40,2013-11-29 16:53:00
10:53 AM,41.0,32.0,70,30.37,10.0,Calm,Calm,-,N/A,,Overcast,0,2013-11-29 17:53:00
11:53 AM,39.9,32.0,73,30.36,10.0,WNW,3.5,-,N/A,,Overcast,300,2013-11-29 18:53:00
12:53 PM,41.0,32.0,70,30.33,10.0,NNW,4.6,-,N/A,,Overcast,340,2013-11-29 19:53:00
1:53 PM,42.1,32.0,67,30.31,10.0,Calm,Calm,-,N/A,,Overcast,0,2013-11-29 20:53:00
2:53 PM,42.1,32.0,67,30.31,10.0,North,3.5,-,N/A,,Overcast,360,2013-11-29 21:53:00
3:53 PM,43.0,32.0,65,30.30,10.0,North,5.8,-,N/A,,Overcast,360,2013-11-29 22:53:00
4:53 PM,43.0,32.0,65,30.30,10.0,North,4.6,-,N/A,,Overcast,10,2013-11-29 23:53:00
5:53 PM,42.1,33.1,70,30.31,10.0,ENE,3.5,-,N/A,,Overcast,60,2013-11-30 00:53:00
6:53 PM,42.1,33.1,70,30.32,10.0,Calm,Calm,-,N/A,,Overcast,0,2013-11-30 01:53:00
7:53 PM,42.1,32.0,67,30.33,10.0,East,3.5,-,N/A,,Overcast,100,2013-11-30 02:53:00
8:53 PM,41.0,33.1,73,30.35,10.0,Calm,Calm,-,N/A,,Overcast,0,2013-11-30 03:53:00
9:53 PM,41.0,33.1,73,30.35,10.0,East,4.6,-,N/A,,Overcast,90,2013-11-30 04:53:00
10:53 PM,41.0,32.0,70,30.36,10.0,East,4.6,-,N/A,,Overcast,100,2013-11-30 05:53:00
11:53 PM,39.9,32.0,73,30.36,10.0,SE,4.6,-,N/A,,Overcast,130,2013-11-30 06:53:00